Wetbulb
46.74 46.84 46.94 47.24 47.15 46.61 46.72 46.60 46.66 46.82 46.77 46.73 46.95 47.03 46.80 47.39 47.64 43.86 41.52 43.52 40.63 39.06 38.92 41.81 43.08 38.05 39.42 38.88 36.55 39.83 41.56 43.17 41.16 38.71 38.32 37.90 37.07 39.26 38.27 41.07 39.32 37.87 35.54 33.87 33.87 30.72 31.12 46.23 44.64 39.58 40.93 41.17 43.81 43.20
46.51 46.84 46.86 46.96 47.07 46.81 46.59 46.52 46.54 46.65 46.68 46.79 46.53 46.95 46.61 46.52 47.54 46.00 39.34 42.60 44.28 37.93 37.93 42.47 44.39 45.25 44.33 43.47 39.25 37.82 39.34 40.68 46.03 39.38 38.55 38.21 37.71 37.44 36.30 33.83 41.57 37.21 39.34 36.78 37.35 37.08 43.03 44.42 42.73 44.10 44.40 44.07 43.39 43.03
46.38 46.55 46.58 46.83 46.93 46.98 46.87 46.62 46.54 46.55 46.48 46.66 46.48 46.59 46.62 46.59 47.10 46.11 41.31 40.49 39.38 37.52 37.43 36.46 37.49 42.61 43.87 44.61 46.46 34.77 39.94 46.78 43.12 46.20 43.83 42.35 36.13 38.82 35.03 36.10 40.16 42.65 43.62 39.52 40.23 43.77 45.33 46.38 45.90 45.55 45.98 44.91 44.79 44.22
46.20 46.30 46.27 46.46 46.94 46.87 46.87 46.66 46.33 46.62 46.45 46.16 46.52 46.49 46.68 46.87 46.79 46.72 41.24 38.86 38.95 37.55 34.61 35.17 43.45 40.68 45.84 42.92 43.21 44.31 42.93 44.78 46.10 45.32 42.06 41.15 37.92 41.08 37.92 40.03 39.79 42.50 43.98 42.06 41.21 44.34 46.31 47.00 46.28 46.48 46.40 46.06 45.12 44.57
46.07 46.22 46.17 46.11 46.36 46.45 46.53 46.57 46.39 46.32 46.30 46.29 46.45 46.87 46.69 46.90 46.83 43.97 39.56 39.12 41.56 36.51 33.11 34.05 40.01 41.64 41.84 41.12 40.89 43.22 42.27 39.72 41.30 40.62 40.75 40.99 42.00 39.37 38.64 38.63 37.58 43.59 41.61 40.62 39.91 46.46 45.05 45.90 47.11 47.52 45.62 45.41 45.24 44.42
45.71 45.65 45.74 45.79 45.68 46.03 46.29 46.60 46.56 46.06 46.35 46.22 46.16 46.78 46.51 46.67 46.33 38.24 33.50 40.28 43.14 44.91 36.73 30.72 38.45 39.65 40.24 42.12 40.78 40.37 42.50 40.77 41.91 40.66 40.21 42.87 44.80 41.46 37.14 34.71 41.13 43.44 45.02 45.52 45.02 47.43 47.31 47.93 48.05 47.19 45.84 45.57 45.68 44.69
45.55 45.45 45.48 45.70 45.68 45.91 45.84 46.39 46.34 46.09 45.94 45.99 46.11 46.55 46.45 46.45 39.20 35.80 32.27 43.06 45.59 43.35 38.49 32.50 32.18 39.90 42.58 41.07 41.02 42.15 43.08 43.04 41.94 40.89 39.45 40.46 41.40 41.56 37.26 34.23 42.68 44.92 46.57 45.82 48.14 49.11 46.65 46.86 45.95 46.65 45.97 46.36 46.75 44.84
45.28 45.31 45.43 45.71 45.88 45.90 45.98 46.15 46.39 46.11 45.84 46.00 46.11 46.36 46.08 46.39 43.03 38.99 40.50 44.96 44.88 38.77 40.61 32.94 31.69 33.94 40.73 38.05 39.42 42.51 40.84 41.04 40.33 40.25 40.43 39.38 39.94 40.15 35.96 40.92 43.13 46.14 48.22 48.38 48.88 47.90 47.82 47.26 46.55 44.81 46.09 45.17 43.49 42.60
44.97 45.66 45.74 45.90 46.05 46.11 46.04 46.08 46.27 45.97 45.68 45.88 46.03 45.76 40.29 40.07 34.74 34.84 44.64 44.60 42.08 40.08 34.14 32.59 29.29 28.60 39.04 38.70 40.52 42.88 41.00 37.42 40.09 38.71 38.92 40.42 37.47 35.35 40.45 42.69 43.54 46.70 48.12 48.20 48.34 47.52 47.63 46.56 45.37 44.95 44.84 44.10 42.78 42.19
45.31 45.75 45.78 45.59 45.74 45.93 46.18 46.12 46.31 45.85 45.75 45.59 40.11 34.86 31.28 34.67 44.78 45.21 39.24 35.00 35.12 38.86 38.67 33.03 36.33 30.42 34.74 35.46 37.38 38.39 40.96 38.53 34.34 38.27 39.92 37.98 38.57 40.36 42.80 44.87 46.06 46.89 48.66 48.71 45.42 44.23 45.35 45.14 44.86 44.40 44.40 44.71 44.30 43.38
45.59 45.10 45.03 45.53 45.72 45.93 46.19 46.14 46.28 45.75 44.05 36.09 32.05 31.51 36.54 44.27 41.59 35.45 31.38 31.65 31.55 31.09 33.63 33.08 32.65 30.36 34.71 33.16 35.01 37.87 35.97 38.15 34.77 35.59 35.85 33.29 32.12 40.57 44.17 45.05 46.32 45.66 47.95 49.91 49.21 49.59 48.84 47.96 45.95 44.81 44.38 44.76 44.76 43.73
45.38 44.91 45.48 45.97 45.95 46.17 46.16 46.18 46.30 41.14 36.08 36.52 36.02 38.33 37.54 36.82 36.26 32.35 31.19 33.05 33.12 27.87 30.99 30.07 31.55 32.32 32.56 34.85 35.81 38.07 36.58 38.17 34.97 40.00 35.25 31.47 36.03 40.22 43.38 45.19 46.87 46.00 46.58 49.28 48.81 48.99 48.02 48.16 47.21 46.41 45.52 44.78 44.38 44.15
44.86 45.48 45.09 45.10 45.43 45.83 45.88 46.16 45.96 44.30 42.24 37.69 35.25 33.03 33.44 33.45 26.24 26.84 24.88 30.11 28.85 34.09 34.76 34.89 33.12 33.77 32.86 35.43 34.47 36.03 34.70 33.69 39.58 35.02 33.41 35.47 39.41 42.00 42.36 44.23 46.22 46.65 46.67 48.85 48.08 49.48 49.19 48.37 48.25 46.72 45.74 45.76 44.65 43.72
43.94 44.38 44.46 44.36 44.73 45.43 45.66 45.92 45.54 43.85 36.78 31.32 31.18 25.36 27.54 26.16 30.02 32.56 33.74 34.45 37.13 35.83 36.77 36.66 35.83 34.18 33.57 33.41 33.77 32.31 35.49 36.41 33.42 29.99 31.21 36.37 40.84 43.16 45.36 47.01 45.04 45.13 46.44 47.52 48.34 48.99 48.75 48.25 47.62 47.45 46.88 45.60 44.32 43.10
44.70 44.71 44.71 45.03 45.15 44.78 45.22 45.34 45.28 39.26 34.75 30.29 33.41 25.31 26.75 32.56 34.66 35.16 36.36 36.80 39.41 41.21 39.61 35.94 35.21 36.86 33.42 32.18 33.21 32.57 31.42 29.75 33.47 30.40 33.43 39.60 41.50 43.68 44.81 45.91 45.90 45.53 46.63 48.06 48.90 48.91 48.75 48.09 46.59 44.86 44.68 44.54 44.53 43.93
44.62 43.36 42.84 44.49 45.03 45.51 45.47 44.29 40.38 37.60 34.41 33.15 31.69 29.06 30.56 30.06 31.62 33.16 34.66 34.66 39.95 40.59 40.81 40.15 37.33 34.10 34.33 33.05 29.78 30.15 30.27 29.41 32.12 36.09 39.89 41.80 41.55 43.05 44.52 46.44 46.95 46.87 47.69 48.11 48.89 49.00 47.98 46.67 45.24 43.76 43.79 43.95 43.91 44.02
43.44 38.63 44.86 45.26 45.45 45.55 44.66 37.96 35.85 33.01 30.33 30.43 29.29 32.08 31.80 29.68 29.41 31.44 36.33 35.89 40.89 40.40 36.45 36.25 33.39 34.66 36.08 32.04 30.66 32.30 31.40 38.47 41.79 41.19 41.22 41.26 41.85 42.57 44.49 47.45 47.35 47.50 46.71 47.01 46.90 47.11 45.92 45.21 44.63 44.05 42.21 41.91 42.98 43.44
40.95 40.88 45.35 45.02 41.84 41.07 37.66 38.50 33.87 32.04 30.35 31.65 28.74 27.93 28.44 29.95 30.66 32.62 36.21 38.34 39.69 38.76 39.82 36.26 39.22 33.45 34.25 33.23 33.99 38.62 36.80 37.81 40.56 43.39 43.55 42.98 42.88 43.73 45.58 46.41 46.64 46.98 46.29 46.31 46.19 45.31 45.09 44.22 43.40 42.67 42.52 42.40 42.34 42.58
40.18 40.27 45.10 44.97 41.27 36.17 32.40 33.84 35.03 29.07 30.23 29.80 29.73 29.74 29.79 30.70 32.85 35.91 37.43 38.57 40.92 41.15 40.72 37.67 35.57 33.57 35.16 37.91 37.82 37.78 37.22 40.80 39.77 43.20 43.98 45.17 44.70 46.08 48.70 47.33 45.89 45.22 45.83 45.62 45.90 45.96 45.00 44.47 43.60 43.56 43.05 43.12 42.34 42.85
44.56 44.70 44.50 44.52 42.23 36.16 34.37 32.20 36.72 30.98 29.03 28.73 29.70 29.16 30.48 32.77 35.61 36.57 35.89 37.39 37.60 37.71 36.41 34.55 35.00 38.41 38.59 40.05 41.09 40.70 43.07 44.79 43.08 41.43 43.39 44.86 45.63 47.83 47.99 45.76 46.59 47.01 46.64 45.78 44.41 42.64 43.38 42.94 42.93 43.37 43.28 42.37 42.50 42.05
41.42 39.57 42.59 39.90 37.28 36.22 34.42 31.83 31.73 31.79 31.09 30.24 34.12 34.27 34.62 36.35 33.86 33.27 34.82 37.48 35.79 33.93 33.90 37.70 38.56 38.90 41.45 43.33 44.60 44.60 44.86 44.37 41.68 41.97 44.06 44.42 46.69 48.74 47.79 46.61 46.93 46.51 44.59 43.99 43.35 41.43 42.52 42.80 42.01 42.57 42.10 41.91 42.13 42.62
40.03 42.79 37.32 39.24 34.94 36.99 34.90 33.78 30.43 31.39 31.16 32.97 34.24 33.98 31.71 30.77 31.24 33.26 36.41 33.75 33.66 35.78 37.27 38.62 40.45 42.42 44.23 42.82 42.22 42.32 43.02 43.07 44.28 44.98 43.63 45.28 46.42 47.38 46.79 45.99 44.74 43.83 43.94 43.64 43.58 42.96 42.33 42.43 42.84 42.54 42.26 41.32 41.55 43.32
42.75 41.20 39.07 38.59 35.02 32.21 27.88 34.05 30.20 32.15 31.11 32.27 33.66 31.25 30.33 30.69 34.61 39.96 33.97 36.76 37.59 40.33 41.66 41.58 43.30 42.98 40.67 40.70 41.73 42.75 43.53 43.34 45.00 48.03 48.46 49.04 48.05 47.67 45.93 46.38 45.73 44.27 42.64 40.95 43.24 43.17 42.39 40.48 41.08 42.20 41.89 41.77 41.72 41.90
42.80 38.19 34.82 33.30 34.15 30.02 35.57 32.73 35.44 33.82 33.28 31.07 30.44 30.79 31.91 34.20 39.23 36.43 34.71 38.20 40.26 43.03 42.49 42.04 40.73 38.65 39.21 39.20 39.89 41.23 46.20 45.31 45.15 48.03 49.02 48.17 46.19 45.90 46.60 45.26 44.26 42.96 42.39 41.41 42.12 42.11 42.84 42.24 40.48 42.28 42.58 43.32 41.70 41.24
33.90 30.52 33.15 30.09 34.12 32.25 32.26 33.51 34.64 34.90 31.31 32.75 31.87 32.51 33.38 35.62 33.54 34.23 35.44 37.93 39.34 40.78 39.79 39.52 39.22 38.77 37.18 37.47 40.45 42.17 46.71 48.14 47.74 47.69 47.76 47.18 44.80 44.24 43.77 43.39 42.11 42.17 43.60 43.23 41.61 41.36 40.39 41.61 41.55 41.42 41.56 43.65 43.92 43.25
29.11 30.81 26.88 32.08 33.68 33.15 32.83 31.41 32.60 31.96 32.28 32.43 33.88 35.53 34.95 33.13 33.18 32.58 35.80 36.29 37.24 38.05 36.56 37.45 37.03 36.31 36.91 37.59 40.62 42.42 45.05 49.10 48.88 46.75 45.48 45.02 45.04 43.77 43.02 41.91 41.04 40.65 42.37 42.79 41.99 40.89 40.43 40.69 40.89 40.88 40.91 41.43 37.64 44.07
26.97 28.94 32.31 36.28 34.71 34.08 31.23 32.21 33.35 31.82 31.94 31.69 31.76 32.30 29.27 30.28 31.59 36.62 41.01 42.17 40.35 39.60 37.65 38.62 38.73 38.25 38.04 38.46 42.01 44.45 46.06 48.08 49.00 47.65 47.25 44.90 44.36 44.44 44.78 42.63 41.16 41.73 42.98 42.58 42.20 41.93 41.44 41.06 40.82 40.89 41.15 43.33 44.52 45.10
32.42 33.36 31.42 32.44 32.64 33.50 30.98 31.01 31.25 32.26 32.77 34.40 33.07 31.43 30.67 31.27 32.51 38.32 39.19 41.49 42.48 39.60 39.94 40.84 40.85 40.31 39.96 41.05 42.85 44.02 45.46 47.54 49.97 44.96 44.36 43.43 43.32 44.09 44.37 44.26 44.96 38.70 43.72 43.92 43.30 43.23 42.75 42.84 42.57 41.93 42.18 43.90 44.52 46.80
31.32 32.93 34.28 32.22 33.24 32.71 32.49 32.01 33.16 35.65 36.72 34.42 31.81 34.14 35.98 39.15 39.90 39.84 40.44 42.01 42.35 41.00 40.52 40.28 41.00 41.48 42.66 43.15 45.12 45.34 45.31 45.86 42.61 40.66 39.99 38.87 40.10 41.17 43.22 44.11 43.91 44.03 43.37 41.26 35.10 40.45 44.71 45.24 45.66 45.59 45.06 44.45 46.32 47.60
31.00 34.62 32.66 34.06 32.96 31.85 35.22 35.05 33.42 36.54 37.47 36.81 35.88 36.14 36.83 37.68 40.62 40.48 40.01 41.13 39.79 39.82 40.54 41.25 41.07 42.39 41.91 43.26 44.72 45.29 46.34 47.31 44.00 43.27 40.92 39.77 40.66 41.87 43.33 43.37 43.14 42.69 43.46 43.24 42.33 40.96 36.96 43.50 42.61 46.77 46.12 46.48 46.75 46.52
33.60 32.34 31.21 32.04 32.42 34.11 35.72 36.41 36.96 37.08 36.41 33.97 35.88 35.02 34.92 37.33 39.38 40.94 41.92 41.86 41.80 41.40 40.76 40.74 43.42 44.70 44.01 44.31 45.08 44.01 42.46 44.24 44.24 43.72 44.27 43.65 43.41 43.65 43.92 43.95 43.61 43.51 43.74 43.80 44.05 43.30 43.43 44.79 45.30 45.56 45.64 45.31 44.11 44.55
32.85 32.04 31.23 30.42 30.60 34.78 35.55 34.67 34.27 33.91 34.57 34.54 34.03 35.66 35.85 36.13 35.71 39.95 43.96 42.83 42.02 42.22 38.36 40.99 42.53 43.99 45.91 45.94 46.08 46.10 39.28 45.43 43.17 44.42 45.46 45.26 44.95 45.33 45.50 45.36 45.21 45.00 44.46 44.08 45.43 45.24 45.23 45.06 45.30 45.44 45.12 42.46 42.14 41.01
29.97 29.71 31.86 30.79 28.81 30.29 32.63 33.85 33.74 33.67 33.77 32.90 33.99 35.73 36.17 35.96 36.66 40.27 44.89 44.33 42.82 44.86 45.29 46.06 43.76 46.27 46.05 47.20 47.83 46.95 39.85 41.89 39.93 36.24 37.08 37.82 38.42 41.25 45.20 45.85 45.97 45.52 45.27 45.66 45.46 45.57 45.16 45.42 45.42 45.28 42.73 41.23 41.31 40.99
MSLP
1028.20 1027.93 1027.64 1027.32 1027.09 1026.81 1026.45 1026.10 1025.86 1025.62 1025.34 1025.04 1024.69 1024.39 1024.11 1023.73 1023.40 1023.30 1022.93 1022.53 1022.41 1021.66 1019.76 1018.68 1017.96 1017.70 1017.45 1017.06 1016.65 1015.49 1014.36 1013.64 1013.17 1013.47 1013.76 1013.74 1013.24 1012.75 1013.03 1013.17 1013.81 1014.84 1016.04 1017.15 1017.63 1016.87 1015.24 1013.31 1013.51 1013.92 1014.38 1015.17 1015.84 1017.09
1027.70 1027.46 1027.15 1026.83 1026.57 1026.29 1025.99 1025.67 1025.44 1025.22 1024.99 1024.73 1024.46 1024.15 1023.93 1023.67 1023.36 1023.08 1023.14 1022.47 1022.41 1022.30 1019.92 1018.52 1017.88 1017.34 1017.31 1017.07 1017.21 1016.44 1015.79 1015.03 1014.42 1014.34 1014.24 1013.96 1013.72 1013.31 1013.26 1013.82 1013.49 1014.14 1014.09 1014.98 1015.51 1014.78 1013.83 1013.25 1013.27 1013.29 1013.82 1014.85 1016.29 1017.24
1027.11 1026.89 1026.61 1026.30 1026.02 1025.73 1025.46 1025.20 1024.95 1024.76 1024.58 1024.37 1024.17 1023.93 1023.69 1023.45 1023.19 1023.04 1023.00 1022.92 1022.55 1021.90 1019.55 1018.29 1016.72 1015.91 1015.88 1015.91 1016.14 1016.91 1015.45 1014.69 1014.60 1014.48 1014.67 1014.54 1014.21 1013.44 1013.61 1013.24 1013.02 1013.05 1013.11 1013.80 1014.55 1013.77 1013.48 1013.27 1013.38 1013.68 1014.17 1014.97 1016.03 1016.97
1026.51 1026.27 1025.96 1025.67 1025.37 1025.10 1024.84 1024.63 1024.43 1024.27 1024.16 1024.01 1023.81 1023.60 1023.36 1023.12 1022.87 1022.66 1023.07 1022.93 1023.11 1022.34 1020.80 1017.62 1016.02 1015.67 1014.96 1015.01 1015.46 1015.43 1014.94 1014.92 1014.98 1014.89 1014.90 1014.91 1014.53 1013.21 1012.93 1012.17 1012.28 1012.19 1012.56 1013.25 1013.72 1013.62 1013.42 1013.45 1013.55 1013.85 1014.69 1015.43 1016.48 1017.72
1025.82 1025.51 1025.18 1024.89 1024.64 1024.41 1024.21 1024.04 1023.88 1023.77 1023.68 1023.57 1023.37 1023.12 1022.92 1022.71 1022.49 1022.30 1022.27 1021.93 1021.97 1022.46 1020.86 1018.41 1016.44 1014.01 1013.80 1014.14 1014.41 1014.52 1015.02 1015.52 1015.78 1015.71 1015.47 1014.99 1013.90 1013.50 1012.92 1012.47 1011.88 1011.34 1011.48 1011.99 1012.33 1012.23 1012.47 1012.92 1013.36 1014.04 1014.84 1015.77 1016.57 1017.55
1024.96 1024.65 1024.36 1024.09 1023.88 1023.69 1023.47 1023.36 1023.28 1023.22 1023.14 1023.04 1022.94 1022.71 1022.55 1022.45 1022.33 1022.60 1021.91 1021.63 1021.46 1021.62 1021.15 1019.16 1016.21 1014.20 1013.38 1013.13 1013.51 1013.90 1014.15 1015.02 1015.20 1015.35 1015.04 1014.13 1013.37 1013.27 1013.12 1012.55 1010.87 1010.45 1010.34 1010.28 1010.80 1011.10 1011.91 1012.26 1013.00 1014.09 1015.00 1015.78 1016.78 1017.69
1023.98 1023.68 1023.43 1023.22 1023.00 1022.82 1022.68 1022.61 1022.60 1022.60 1022.56 1022.51 1022.45 1022.32 1022.21 1022.13 1022.64 1022.58 1021.64 1021.03 1020.96 1021.25 1020.87 1019.39 1017.07 1014.24 1012.85 1012.49 1012.57 1013.16 1013.44 1013.89 1014.02 1014.58 1014.53 1014.15 1013.66 1013.28 1012.95 1012.22 1010.57 1010.07 1009.91 1010.28 1010.48 1011.27 1012.58 1013.04 1013.57 1014.35 1015.07 1016.11 1017.12 1018.15
1022.97 1022.69 1022.41 1022.16 1021.96 1021.87 1021.84 1021.84 1021.87 1021.99 1022.04 1022.04 1021.98 1021.87 1021.81 1021.67 1021.64 1021.57 1020.40 1020.03 1020.90 1021.34 1020.69 1019.66 1017.60 1015.57 1013.33 1012.75 1012.54 1012.28 1012.96 1013.34 1013.58 1013.76 1014.04 1014.02 1013.57 1013.11 1012.45 1011.05 1010.47 1010.05 1009.87 1010.22 1010.66 1010.92 1011.43 1012.52 1013.57 1014.85 1015.68 1016.47 1017.67 1018.68
1021.96 1021.59 1021.21 1020.94 1020.78 1020.72 1020.85 1020.98 1021.12 1021.39 1021.56 1021.60 1021.51 1021.48 1021.80 1021.52 1021.45 1020.44 1019.42 1019.52 1019.95 1021.04 1020.20 1019.34 1018.26 1016.62 1014.47 1013.63 1012.95 1012.36 1012.22 1013.40 1013.57 1013.59 1013.64 1013.69 1013.25 1012.01 1010.71 1010.34 1010.10 1010.05 1009.83 1010.21 1010.94 1011.48 1011.95 1012.73 1014.05 1015.20 1015.95 1016.92 1017.69 1018.74
1020.83 1020.32 1019.93 1019.73 1019.63 1019.69 1019.88 1020.06 1020.40 1020.82 1021.12 1021.28 1021.66 1021.85 1021.40 1020.88 1019.87 1019.64 1019.61 1019.97 1020.27 1020.09 1019.66 1019.02 1017.98 1017.50 1016.25 1015.06 1013.76 1013.42 1012.95 1013.02 1013.48 1013.17 1012.82 1012.70 1011.55 1010.92 1010.24 1009.62 1008.91 1009.16 1009.42 1010.06 1011.19 1012.40 1012.68 1013.29 1013.89 1014.82 1015.41 1016.17 1016.96 1018.04
1019.65 1019.24 1018.88 1018.52 1018.44 1018.59 1018.91 1019.28 1019.77 1020.41 1021.02 1021.53 1021.68 1021.45 1020.44 1019.79 1019.61 1019.72 1019.66 1019.86 1019.71 1019.41 1018.57 1017.83 1017.45 1017.26 1016.47 1016.10 1014.99 1014.24 1013.57 1013.13 1013.22 1013.34 1013.16 1012.11 1011.14 1010.17 1009.91 1009.43 1008.79 1009.15 1009.11 1009.35 1009.34 1010.07 1010.78 1011.40 1013.09 1014.43 1015.56 1016.29 1017.07 1017.89
1018.77 1018.35 1017.83 1017.39 1017.40 1017.68 1018.04 1018.69 1019.32 1020.31 1020.73 1020.80 1020.76 1020.61 1020.56 1020.19 1019.86 1019.77 1019.10 1018.89 1018.58 1018.13 1017.17 1017.10 1016.79 1016.76 1016.29 1015.68 1015.26 1014.49 1013.93 1013.54 1013.27 1013.21 1013.17 1011.81 1010.49 1009.09 1008.50 1008.23 1008.22 1008.12 1008.78 1009.02 1009.33 1009.95 1010.86 1011.67 1012.67 1013.79 1014.91 1015.97 1016.79 1017.61
1018.30 1017.65 1017.26 1017.05 1017.11 1017.42 1017.86 1018.42 1019.06 1019.74 1020.23 1020.57 1020.73 1020.84 1020.56 1020.19 1019.60 1019.04 1018.20 1017.57 1017.26 1016.57 1016.28 1016.23 1016.32 1016.04 1015.84 1015.42 1014.91 1014.42 1014.01 1013.68 1013.26 1013.26 1012.61 1011.24 1010.39 1009.57 1008.78 1008.10 1007.77 1007.73 1008.24 1008.69 1009.46 1009.74 1010.32 1011.51 1012.77 1013.56 1014.70 1015.66 1016.54 1017.51
1018.25 1017.90 1017.63 1017.37 1017.40 1017.69 1018.01 1018.45 1019.08 1019.77 1020.51 1020.98 1020.92 1020.62 1020.18 1019.28 1018.55 1017.85 1017.53 1016.89 1016.20 1015.74 1015.64 1015.63 1015.33 1015.36 1014.96 1015.02 1014.33 1013.91 1013.18 1013.21 1013.11 1013.14 1012.27 1010.86 1010.23 1009.59 1009.17 1008.70 1008.13 1007.93 1007.96 1008.28 1008.95 1009.77 1010.39 1011.39 1012.65 1013.59 1014.35 1015.18 1016.30 1017.38
1018.33 1018.03 1017.82 1017.80 1017.92 1018.22 1018.49 1018.65 1019.22 1019.93 1020.50 1020.79 1020.68 1020.07 1019.28 1018.37 1018.28 1017.57 1016.83 1016.31 1015.69 1015.30 1015.24 1014.96 1014.63 1014.13 1014.38 1014.23 1013.72 1013.41 1013.24 1012.81 1012.61 1012.30 1011.23 1010.39 1010.09 1009.75 1009.24 1008.55 1008.10 1007.57 1007.58 1007.87 1008.49 1009.33 1010.21 1011.34 1012.48 1013.65 1014.61 1015.47 1016.30 1017.22
1018.66 1018.54 1018.39 1018.24 1018.24 1018.28 1018.54 1019.13 1019.74 1020.16 1020.41 1020.48 1020.23 1019.64 1018.56 1018.36 1017.73 1017.15 1016.39 1015.98 1015.40 1014.97 1014.31 1014.29 1013.97 1013.89 1013.81 1013.15 1013.15 1012.73 1012.57 1012.16 1011.77 1011.36 1010.71 1010.26 1010.16 1009.78 1009.09 1008.35 1007.52 1007.17 1007.11 1007.68 1008.31 1008.91 1009.92 1011.22 1012.38 1013.68 1014.95 1015.77 1016.49 1017.08
1018.79 1018.97 1018.57 1018.56 1018.63 1018.87 1019.16 1019.61 1020.09 1020.34 1020.39 1020.11 1019.32 1018.59 1018.39 1018.11 1017.57 1016.81 1016.01 1015.37 1014.86 1014.62 1014.09 1013.90 1013.51 1013.22 1012.61 1012.41 1012.32 1011.89 1011.96 1011.84 1011.60 1011.06 1010.66 1010.35 1010.15 1009.46 1008.91 1008.12 1006.77 1006.64 1007.16 1007.73 1008.43 1009.35 1010.53 1011.77 1012.86 1014.09 1015.33 1016.22 1016.70 1017.28
1019.31 1019.33 1018.93 1019.01 1019.23 1019.48 1019.66 1019.72 1020.05 1020.06 1019.88 1019.10 1018.85 1017.93 1017.90 1017.27 1016.75 1016.10 1015.47 1014.97 1014.82 1014.10 1013.90 1013.42 1013.10 1012.65 1012.15 1011.97 1011.99 1011.81 1011.76 1011.52 1011.29 1010.82 1010.29 1009.81 1009.49 1009.10 1008.64 1007.66 1006.38 1006.63 1007.05 1007.67 1008.63 1009.73 1010.90 1012.15 1013.34 1014.47 1015.30 1016.19 1016.99 1017.64
1019.49 1019.47 1019.35 1019.39 1019.52 1019.75 1020.00 1019.87 1019.83 1019.65 1018.74 1018.38 1017.80 1017.27 1016.94 1016.17 1015.39 1014.98 1014.85 1014.45 1014.12 1013.55 1013.43 1013.14 1012.69 1011.83 1011.53 1011.30 1011.14 1011.18 1011.07 1010.86 1010.66 1010.17 1009.67 1009.16 1009.22 1008.95 1008.25 1007.30 1006.98 1007.49 1007.73 1008.27 1009.50 1010.55 1011.64 1012.22 1013.24 1014.36 1015.43 1016.23 1017.04 1017.66
1019.66 1019.61 1019.60 1019.51 1019.52 1019.83 1019.78 1019.60 1019.33 1019.23 1018.59 1017.69 1017.16 1016.55 1016.08 1015.57 1014.91 1014.53 1014.29 1013.97 1013.70 1013.55 1013.33 1012.67 1011.86 1011.06 1010.68 1010.59 1010.67 1010.77 1010.90 1010.47 1010.40 1010.02 1009.51 1009.01 1008.56 1008.41 1008.05 1007.51 1007.78 1008.30 1008.73 1009.67 1010.69 1011.45 1012.35 1013.52 1014.31 1014.94 1015.58 1016.28 1016.96 1017.57
1019.79 1019.88 1019.72 1019.78 1019.82 1019.82 1019.81 1019.51 1019.14 1018.62 1018.01 1017.47 1016.27 1015.88 1015.29 1014.84 1014.52 1014.20 1013.90 1013.57 1013.67 1013.42 1012.95 1011.99 1011.33 1010.66 1010.39 1010.22 1010.16 1010.45 1010.29 1010.29 1009.98 1009.64 1009.05 1008.58 1008.44 1008.56 1008.36 1008.24 1008.38 1009.16 1009.72 1010.06 1011.32 1012.53 1012.96 1013.82 1014.75 1015.29 1015.89 1016.46 1016.82 1017.22
1019.94 1019.83 1019.99 1019.84 1019.90 1019.37 1019.27 1018.88 1018.91 1018.20 1017.88 1016.67 1015.99 1015.27 1014.98 1014.61 1014.28 1013.94 1013.64 1013.67 1013.40 1012.85 1012.30 1011.74 1011.15 1010.70 1010.40 1010.27 1010.18 1010.10 1009.77 1009.56 1009.31 1008.98 1008.56 1008.40 1008.44 1008.61 1008.81 1008.59 1009.16 1010.36 1010.56 1011.13 1011.85 1012.67 1013.58 1014.21 1014.77 1015.38 1015.94 1016.55 1016.96 1017.37
1019.84 1019.86 1019.74 1019.59 1019.39 1019.14 1018.72 1018.37 1018.34 1017.65 1017.20 1016.19 1015.52 1015.03 1014.52 1014.09 1013.73 1013.44 1013.49 1013.35 1012.86 1012.20 1011.84 1011.55 1011.05 1010.75 1010.76 1010.25 1010.03 1009.93 1009.47 1009.08 1008.93 1008.54 1008.36 1008.22 1008.43 1008.73 1009.19 1009.60 1010.15 1010.58 1011.41 1012.06 1012.29 1012.99 1013.78 1014.30 1014.82 1015.45 1016.08 1016.65 1017.10 1017.50
1019.37 1019.40 1019.11 1018.99 1018.80 1018.47 1018.25 1017.89 1017.39 1016.92 1016.35 1015.89 1015.23 1014.43 1013.78 1013.43 1013.22 1013.40 1013.40 1013.05 1012.64 1012.03 1011.71 1011.50 1011.39 1011.28 1010.97 1010.56 1010.64 1010.19 1009.71 1009.59 1009.29 1008.86 1008.42 1008.54 1008.98 1009.44 1009.66 1010.07 1010.51 1011.02 1011.44 1012.19 1012.82 1013.44 1013.94 1014.53 1015.04 1015.65 1016.19 1016.70 1017.27 1017.71
1019.59 1019.00 1018.90 1018.23 1017.92 1017.73 1017.11 1016.51 1016.41 1016.07 1015.52 1014.93 1014.48 1013.89 1013.45 1013.21 1013.34 1013.20 1013.26 1013.08 1012.95 1012.70 1012.32 1012.10 1011.88 1011.70 1011.78 1011.32 1010.70 1009.98 1009.68 1009.62 1009.28 1009.18 1009.32 1009.11 1009.91 1010.33 1010.62 1011.06 1011.62 1011.85 1012.02 1012.59 1013.38 1013.75 1014.39 1014.78 1015.28 1015.83 1016.29 1016.68 1017.06 1017.56
1019.28 1018.58 1018.38 1017.32 1016.98 1016.60 1016.28 1015.98 1015.58 1015.21 1014.79 1014.37 1014.06 1013.67 1013.47 1013.44 1013.50 1013.44 1013.63 1013.36 1013.17 1012.81 1012.65 1012.53 1012.24 1012.14 1011.90 1011.83 1011.20 1010.78 1010.41 1009.84 1009.28 1009.41 1009.79 1009.82 1009.78 1010.17 1010.91 1011.39 1012.10 1012.82 1012.84 1012.85 1013.40 1014.20 1014.82 1015.21 1015.68 1016.18 1016.65 1016.85 1017.10 1017.33
1019.20 1018.30 1017.51 1016.96 1016.78 1016.36 1015.98 1015.45 1015.10 1014.99 1014.66 1014.41 1014.18 1013.94 1013.66 1013.60 1013.79 1013.98 1013.18 1012.88 1012.87 1012.33 1012.38 1012.76 1012.30 1012.09 1012.08 1011.90 1011.38 1011.15 1010.91 1010.47 1010.20 1010.26 1010.24 1010.22 1010.20 1010.48 1010.73 1011.60 1012.57 1012.83 1012.91 1013.22 1013.82 1014.32 1014.95 1015.47 1015.93 1016.32 1016.70 1017.01 1017.24 1017.44
1018.60 1018.05 1017.80 1017.11 1016.87 1016.34 1016.09 1015.66 1015.42 1015.20 1015.04 1014.58 1014.28 1014.33 1014.24 1014.09 1014.17 1013.55 1013.11 1012.57 1012.33 1012.12 1012.20 1012.18 1012.03 1012.01 1011.91 1011.47 1011.10 1010.77 1010.54 1010.48 1010.48 1010.59 1010.71 1011.06 1011.18 1011.20 1011.35 1011.76 1012.00 1012.56 1013.15 1013.61 1014.09 1014.65 1015.22 1015.60 1015.97 1016.38 1016.76 1017.11 1017.47 1017.66
1018.36 1017.60 1017.40 1016.96 1016.65 1016.31 1015.96 1015.67 1015.29 1015.12 1014.96 1014.91 1014.93 1014.66 1014.38 1014.08 1013.53 1013.18 1012.73 1012.37 1012.39 1012.68 1012.67 1012.09 1011.84 1012.01 1011.35 1011.09 1010.98 1010.82 1010.66 1010.55 1010.67 1011.09 1011.26 1011.79 1012.11 1012.46 1012.27 1012.47 1012.88 1013.32 1013.84 1014.40 1014.68 1015.00 1015.35 1015.68 1016.03 1016.47 1016.92 1017.32 1017.68 1018.07
1017.94 1017.42 1017.38 1016.95 1016.67 1016.30 1015.53 1015.11 1014.85 1014.51 1014.52 1014.50 1014.46 1014.33 1014.14 1013.81 1013.16 1012.82 1012.69 1012.69 1013.06 1013.52 1013.49 1012.74 1012.34 1012.07 1011.90 1011.25 1010.95 1010.62 1010.41 1010.34 1010.45 1010.62 1011.09 1011.72 1012.23 1012.52 1012.84 1013.18 1013.59 1013.97 1014.37 1014.89 1015.51 1015.92 1015.94 1016.21 1016.59 1017.06 1017.40 1017.83 1018.18 1018.74
1017.64 1017.40 1017.26 1016.89 1016.45 1015.71 1015.16 1014.79 1014.43 1014.28 1014.29 1014.42 1014.46 1014.57 1014.44 1014.15 1013.66 1013.53 1013.49 1013.62 1013.58 1013.79 1013.93 1013.61 1013.00 1012.38 1012.33 1011.93 1011.72 1011.53 1011.44 1011.16 1011.02 1011.23 1011.18 1011.78 1012.49 1013.08 1013.43 1013.74 1014.09 1014.41 1014.78 1015.15 1015.58 1016.07 1016.50 1016.90 1017.26 1017.68 1018.03 1018.36 1018.78 1019.25
1017.78 1017.49 1017.45 1017.16 1016.63 1015.50 1014.99 1014.91 1014.76 1014.72 1014.71 1014.66 1014.61 1014.53 1014.41 1014.47 1014.78 1014.95 1015.08 1014.62 1014.56 1014.35 1014.32 1013.87 1013.56 1013.22 1012.84 1012.51 1012.20 1012.05 1012.04 1011.97 1011.65 1011.77 1011.91 1012.55 1013.16 1013.60 1013.89 1014.20 1014.47 1014.79 1015.19 1015.59 1015.95 1016.50 1016.95 1017.30 1017.79 1018.22 1018.66 1018.89 1019.32 1020.14
1017.96 1017.46 1017.16 1017.10 1016.61 1016.11 1015.52 1015.23 1015.08 1015.05 1014.97 1015.04 1014.75 1014.68 1014.69 1014.90 1015.92 1016.50 1015.69 1015.80 1015.68 1015.00 1014.44 1013.92 1013.66 1013.44 1013.10 1012.69 1012.34 1011.95 1011.75 1011.91 1012.08 1012.48 1012.82 1013.15 1013.64 1014.05 1014.35 1014.70 1015.07 1015.49 1015.79 1016.15 1016.61 1017.04 1017.45 1017.81 1018.28 1018.82 1019.35 1019.91 1020.66 1021.32
Wind_Speed
15 16 16 16 15 15 15 14 15 15 15 15 15 15 15 16 14 7 5 3 3 4 7 5 3 2 5 0 1 5 4 4 4 3 4 5 3 5 4 6 7 8 8 4 3 3 7 5 4 8 8 2 6 6
16 16 16 16 16 15 15 14 14 14 14 14 14 14 13 14 13 9 3 3 2 4 7 2 11 15 10 7 2 3 3 3 2 3 1 2 1 1 5 4 2 3 9 9 9 9 5 4 5 1 6 8 6 8
17 17 17 17 17 16 15 15 15 14 14 14 13 13 13 13 13 8 5 3 3 3 6 2 7 7 8 16 12 4 4 3 0 3 2 1 4 4 5 6 4 1 4 5 5 4 4 3 3 5 5 6 7 6
18 18 18 18 17 16 16 15 15 15 13 13 13 13 14 13 13 10 3 1 0 4 5 8 3 7 4 4 9 16 10 4 3 2 1 1 2 2 4 3 5 6 7 7 1 2 4 4 2 8 5 7 10 9
19 19 19 19 18 17 17 15 15 15 13 13 14 14 13 13 13 6 4 5 6 2 4 8 13 12 7 10 14 14 12 5 1 2 1 4 3 1 1 1 2 5 8 6 7 9 8 8 6 8 11 10 14 13
20 20 19 19 18 18 17 16 15 14 14 13 14 14 12 12 8 3 4 2 3 3 4 5 6 6 4 6 8 8 9 4 5 5 4 3 2 1 1 3 5 4 4 6 6 7 5 2 9 6 8 13 11 11
20 21 20 20 20 19 18 17 16 15 14 13 13 13 11 11 1 3 5 1 3 3 3 5 7 6 5 5 4 4 5 5 5 4 2 2 2 3 1 3 5 5 7 5 4 9 5 4 7 8 10 11 10 8
21 22 22 22 22 20 18 17 16 14 13 13 13 11 11 11 6 6 7 16 5 3 3 4 7 6 5 3 3 3 4 2 0 4 2 3 2 3 5 8 5 4 4 6 9 1 5 10 12 9 11 13 12 10
23 24 24 23 21 20 19 17 15 13 12 12 8 9 3 3 3 5 10 5 2 2 3 3 3 5 8 3 3 1 2 3 1 3 4 5 3 8 7 8 7 8 9 9 6 8 13 13 14 13 13 10 12 9
24 24 21 21 20 19 17 18 15 12 10 6 3 2 3 5 9 9 4 3 3 4 4 4 1 5 4 4 3 1 2 3 3 6 3 5 11 3 5 7 8 10 8 12 9 6 8 12 16 16 15 13 13 13
23 19 21 21 19 18 18 16 15 11 3 2 2 4 4 8 1 1 2 3 3 3 4 5 7 6 2 2 3 1 2 0 3 3 4 4 4 9 13 13 8 6 9 13 10 16 17 20 17 14 10 10 11 13
17 19 22 15 13 14 16 14 15 6 4 6 4 1 2 2 2 3 3 3 5 6 3 4 5 5 4 3 2 2 1 1 4 1 1 4 5 6 13 18 18 9 10 11 8 13 11 15 16 14 14 13 12 11
13 14 8 7 7 11 11 11 15 9 4 2 2 2 1 2 3 5 5 2 3 3 3 2 3 3 2 1 2 3 4 5 1 1 4 5 4 7 6 6 14 10 10 10 7 11 15 14 13 15 14 10 11 10
8 11 7 4 3 5 7 11 14 10 4 2 3 4 4 4 4 0 2 2 5 4 2 3 3 4 3 3 3 4 4 3 2 2 6 3 3 5 5 4 3 6 9 13 15 15 17 17 13 12 12 13 13 12
12 6 5 8 9 7 10 12 14 3 3 2 2 4 5 1 1 6 5 3 3 2 3 3 4 4 3 3 3 2 1 3 5 6 5 4 3 5 6 4 5 6 8 12 15 16 16 15 14 10 9 10 10 11
10 7 4 1 3 8 14 11 3 2 0 2 4 3 5 2 3 3 3 4 3 3 1 1 3 2 4 3 3 7 5 6 4 4 4 4 4 6 7 7 6 7 10 12 13 16 15 16 15 13 11 10 10 12
5 2 4 6 10 14 9 3 2 2 3 3 4 4 5 4 6 4 3 4 2 3 2 1 1 5 1 3 3 2 1 2 5 6 4 4 6 7 9 11 7 8 11 12 14 13 12 12 15 14 13 6 8 8
3 4 9 10 5 3 2 1 2 3 5 5 4 3 3 4 4 4 4 3 2 3 1 2 1 3 2 1 1 2 3 4 4 6 5 5 5 7 10 8 5 9 13 15 15 15 16 15 13 8 11 10 8 7
1 0 5 4 2 2 2 2 3 3 6 3 4 3 4 5 4 4 3 4 4 2 1 3 3 3 3 4 4 2 3 2 3 6 5 5 5 7 10 1 7 8 14 16 15 11 9 11 10 10 8 8 7 6
8 5 4 4 4 1 2 3 2 2 4 4 3 4 3 4 3 3 3 3 1 1 2 3 3 3 3 2 4 3 2 6 3 4 5 3 3 4 4 5 7 10 12 14 11 11 10 9 6 8 8 8 8 7
3 2 3 3 2 2 2 2 3 4 4 3 3 2 4 2 3 2 2 0 1 2 3 4 4 4 3 2 1 2 6 3 4 4 4 4 2 3 4 6 9 7 8 11 10 7 9 9 6 6 7 6 5 5
2 0 2 1 1 2 4 3 3 3 2 4 3 2 3 3 3 3 2 1 2 3 3 2 3 2 3 3 3 3 5 5 6 4 6 3 2 6 5 5 8 6 6 8 9 9 7 7 7 6 7 5 5 5
2 2 2 3 3 1 6 1 2 3 3 3 3 3 3 2 2 0 3 2 3 4 3 2 3 2 1 5 4 4 4 2 0 2 3 6 6 5 5 6 6 9 8 3 5 7 7 8 8 7 6 6 5 4
4 2 2 2 4 3 1 3 3 3 3 2 3 4 2 1 1 2 1 2 3 3 3 4 3 3 5 4 4 4 4 1 1 3 4 7 7 4 6 5 5 4 5 6 6 6 7 7 8 7 7 8 6 6
3 4 2 4 3 3 4 2 3 3 3 3 2 3 2 1 2 1 1 2 1 3 3 3 4 2 2 4 4 5 5 3 1 4 2 6 6 6 7 7 6 4 5 9 6 7 6 6 6 7 6 7 9 8
3 3 3 3 3 2 1 2 3 3 3 2 2 3 2 2 4 3 3 3 3 2 2 1 2 2 3 1 4 4 6 7 5 3 3 3 7 9 8 9 6 2 3 5 8 8 7 6 6 8 6 6 6 9
3 4 3 2 3 4 4 3 2 1 3 3 3 4 3 3 3 1 4 2 3 4 1 1 2 1 3 3 4 1 2 2 1 1 2 3 4 4 8 10 8 5 5 6 6 8 8 7 6 6 6 5 6 7
4 2 2 5 3 2 3 3 3 3 3 4 2 6 3 2 1 3 4 3 4 2 2 3 2 2 3 3 3 3 2 3 3 5 6 6 5 4 6 5 6 12 6 6 7 7 7 7 7 6 6 6 6 7
3 3 1 4 2 2 2 2 1 2 2 1 3 3 2 2 3 2 4 3 3 3 4 5 5 4 3 1 3 3 2 1 5 7 9 5 4 4 3 6 5 6 6 7 7 7 9 8 8 7 7 6 7 8
3 2 2 3 2 3 3 3 2 3 2 3 2 2 3 3 3 1 1 1 2 3 2 5 5 5 4 5 4 4 1 2 3 7 8 5 4 4 4 5 6 5 7 8 8 7 8 9 9 8 7 7 9 11
2 1 2 2 3 3 4 4 2 1 1 2 1 2 2 2 4 5 6 5 3 4 4 5 6 5 5 6 5 5 5 5 5 6 7 7 6 5 5 6 5 6 7 9 8 8 7 7 7 8 9 10 9 12
2 1 1 2 4 6 5 4 2 3 4 4 3 2 4 3 3 4 8 5 4 6 5 5 5 4 4 3 3 2 4 3 3 5 11 8 7 6 7 6 6 7 8 8 8 8 8 9 8 8 10 10 15 18
3 2 2 1 3 4 3 3 3 3 3 2 2 1 1 3 5 3 4 7 5 7 7 5 4 4 4 2 4 3 3 4 8 9 10 11 10 8 7 7 8 8 9 9 8 8 9 11 10 13 15 17 16 17
Wind_Direction
307 306 304 305 304 304 307 310 311 311 312 315 318 317 327 332 344 0 287 301 5 292 279 248 317 325 338 343 277 304 354 332 20 85 140 209 162 216 121 169 174 159 146 175 97 95 279 181 67 171 204 50 142 139
302 300 300 304 303 302 305 305 305 307 307 309 315 315 318 322 330 351 295 312 328 213 256 276 252 243 229 225 56 308 245 269 208 84 12 91 224 97 151 209 89 170 176 179 164 206 236 225 207 183 149 143 155 129
298 298 297 294 295 295 296 298 298 300 304 308 308 310 310 315 317 325 301 316 329 285 286 344 247 252 226 224 202 188 268 222 15 167 154 243 245 123 157 233 141 213 150 126 92 242 232 203 100 142 155 138 138 131
294 294 293 292 292 291 293 290 294 292 295 299 302 303 304 304 307 315 278 215 176 271 273 284 298 285 230 132 186 218 250 353 82 42 127 188 222 155 222 199 160 192 133 142 189 347 53 330 261 160 122 108 106 119
290 291 290 289 288 287 287 285 285 289 284 288 296 296 300 305 311 310 231 217 200 195 295 290 298 272 241 220 209 210 216 225 75 306 219 234 247 55 274 60 223 187 166 150 208 198 167 207 181 154 143 158 154 142
289 289 288 286 286 285 281 279 276 281 278 279 289 299 297 303 336 3 332 46 165 192 278 296 282 281 277 203 185 186 193 166 172 168 219 261 260 93 259 218 258 219 195 161 192 176 164 126 144 138 142 147 147 142
287 287 286 283 282 280 278 273 268 270 274 277 284 291 293 290 136 218 208 162 332 344 267 297 293 273 272 211 174 141 148 189 150 183 216 221 301 89 197 208 251 233 209 176 128 111 60 170 181 145 133 130 125 116
291 289 286 282 276 273 269 265 260 260 266 275 278 280 286 289 309 261 249 256 191 242 271 267 273 321 2 292 189 155 131 137 92 176 91 163 328 142 248 233 230 245 128 127 160 143 159 113 113 108 123 124 125 135
294 290 283 282 277 267 258 254 247 245 257 268 278 289 343 228 240 242 250 193 142 183 280 239 254 274 347 317 302 27 96 113 21 155 202 136 223 226 205 209 202 192 170 174 114 120 127 131 134 136 137 138 137 148
293 293 287 279 270 260 249 240 230 223 247 266 71 45 260 224 250 266 307 96 173 198 223 251 206 268 357 345 310 20 354 160 147 233 114 213 237 233 258 249 215 186 180 128 107 100 115 142 156 165 172 163 160 160
301 294 293 286 265 250 235 228 210 197 96 85 171 230 244 302 320 232 223 175 197 237 215 226 205 233 278 234 275 270 210 118 157 233 173 240 272 219 218 254 249 222 172 181 173 174 177 166 163 158 155 156 153 156
299 300 298 281 251 223 223 202 185 142 174 190 191 296 317 6 230 242 225 200 200 227 233 182 222 186 253 197 198 274 183 288 218 122 151 264 246 241 205 213 228 220 180 192 168 162 157 161 164 160 155 159 165 162
322 325 320 304 228 221 189 191 168 158 129 31 56 296 191 216 245 202 221 205 225 207 226 231 253 208 283 216 231 173 185 219 43 157 234 232 274 337 321 260 228 214 172 176 173 171 153 153 155 156 160 160 153 155
336 353 14 38 140 173 174 156 175 139 95 130 202 244 211 229 242 83 284 248 253 238 287 253 225 189 195 164 197 173 215 124 193 190 241 232 264 302 299 293 300 218 181 166 168 163 156 155 159 157 161 153 151 158
14 1 47 67 88 120 176 183 140 83 117 168 227 239 235 231 35 256 253 277 296 301 287 273 259 160 190 221 206 105 133 226 200 231 235 234 282 304 306 291 291 236 181 172 166 160 155 151 149 137 139 145 144 140
354 8 1 30 148 141 125 106 66 71 22 214 230 263 252 267 241 284 266 250 229 249 268 227 302 195 208 194 143 207 171 208 243 244 281 314 315 297 295 290 278 226 171 160 159 156 147 148 147 138 127 135 142 147
357 358 347 125 116 124 97 83 91 182 219 245 249 219 248 270 253 249 236 249 248 312 267 247 222 236 166 212 214 136 144 339 315 294 274 284 279 292 295 282 255 165 145 144 135 137 128 120 124 127 132 132 130 133
36 327 109 103 88 65 9 62 142 199 243 236 238 253 209 222 248 256 243 241 234 210 257 255 2 252 218 13 68 237 238 241 252 265 278 274 277 292 291 286 132 151 146 137 132 126 127 131 132 131 129 132 120 126
191 110 119 57 128 107 154 269 152 246 242 248 258 249 229 251 235 219 239 256 238 235 178 253 228 246 197 189 226 253 270 235 292 293 290 288 249 261 288 170 95 124 130 125 130 131 133 132 133 133 133 138 144 148
56 63 30 4 32 2 265 273 158 247 271 250 265 270 217 233 290 270 254 238 171 130 250 244 243 263 203 208 192 169 250 282 278 292 281 269 240 286 299 125 113 127 117 106 99 113 105 99 104 132 140 143 145 152
337 297 338 29 323 194 251 279 267 225 274 273 268 260 266 272 293 308 301 74 85 207 246 245 255 270 248 223 204 216 254 226 239 233 269 287 265 103 86 96 102 107 129 120 122 111 118 136 141 137 142 142 140 143
254 129 358 232 264 235 232 207 215 266 277 258 294 229 278 287 269 241 193 73 249 249 225 274 287 298 20 330 295 257 260 245 239 258 260 229 150 115 125 112 114 124 114 124 133 135 131 137 135 132 131 130 124 133
179 204 237 240 240 253 259 129 241 243 249 268 321 280 255 266 249 141 15 263 255 238 258 279 293 32 46 288 333 338 303 270 131 342 5 85 83 102 98 100 119 121 120 75 119 130 134 138 132 128 123 123 127 124
214 250 224 249 220 239 270 236 230 256 269 269 248 274 286 216 175 179 202 295 295 304 342 337 10 357 335 348 351 311 333 39 128 5 38 87 83 61 110 102 94 94 112 118 117 124 137 136 131 132 138 140 136 140
279 259 215 253 215 240 233 210 200 237 262 257 298 293 298 19 50 322 118 254 289 320 349 33 42 1 301 311 309 330 17 19 309 110 113 130 122 103 79 76 66 68 118 120 119 121 114 119 122 130 132 147 150 151
270 263 187 289 305 251 244 261 233 246 242 276 283 305 6 33 32 3 296 286 297 278 278 232 256 324 324 337 304 354 350 352 346 56 63 134 139 131 129 124 116 33 20 116 121 119 115 112 119 127 131 133 139 143
288 290 280 272 297 304 309 314 305 347 3 359 333 340 21 60 44 202 283 241 247 258 237 174 252 317 286 309 292 348 311 303 56 82 354 68 66 77 137 143 156 177 135 116 119 131 132 128 127 130 128 126 147 142
254 248 255 283 311 251 287 318 4 352 313 310 6 23 43 39 326 253 242 263 250 286 310 292 291 343 288 270 276 305 337 17 88 83 75 47 37 66 90 79 101 116 113 118 119 119 128 134 132 134 134 130 112 122
263 269 278 292 282 295 261 249 290 258 219 95 76 323 300 250 249 256 280 274 30 45 355 331 334 337 327 313 197 208 208 137 113 108 111 111 85 28 52 101 96 96 100 91 69 106 123 124 119 114 112 113 121 125
270 190 286 284 303 283 280 194 254 253 195 197 197 4 352 300 274 295 291 64 82 70 20 306 317 355 357 14 7 11 358 139 158 146 141 151 153 136 105 106 104 99 106 105 105 96 83 97 95 95 100 104 115 120
271 320 286 272 278 275 261 281 279 326 44 55 29 137 237 284 331 3 25 10 57 58 39 353 336 4 358 12 19 16 32 11 87 89 96 100 93 93 100 103 108 110 118 120 116 113 115 103 109 118 120 111 114 125
304 225 71 308 303 294 344 19 355 19 351 18 325 345 353 34 58 20 360 347 5 15 359 348 332 314 340 342 339 311 247 241 103 110 103 102 98 100 102 102 106 107 104 104 110 108 113 118 119 120 110 101 112 117
301 320 226 269 325 315 305 8 12 359 5 333 301 308 220 125 78 350 327 14 346 336 333 316 287 278 293 314 301 323 70 84 100 101 99 96 101 100 91 90 94 99 102 108 110 121 126 120 115 114 114 113 112 112